Regional Weather Roundup
Issued by NWS Newport/Morehead, NC

Current Version | Previous Version | Text Only | Print | Product List | Glossary On
Versions: 1 2 3 4 5 6 7 8 9 10 11 12 13 14 15 16 17 18 19 20 21 22 23 24 25 26 27 28 29 30 31 32 33 34 35 36 37 38 39 40 41 42 43 44 45 46 47 48 49 50
000
ASUS42 KMHX 270613
RWRMHX
WEATHER ROUNDUP FOR EASTERN NORTH CAROLINA
NATIONAL WEATHER SERVICE NEWPORT/MOREHEAD CITY NC
200 AM EDT WED MAY 27 2015

NOTE: "FAIR" INDICATES FEW OR NO CLOUDS BELOW 12,000 FEET
WITH NO SIGNIFICANT WEATHER AND/OR OBSTRUCTIONS TO VISIBILITY

NCZ015>017-031-032-045>047-102-103-270700-
NORTH COAST

CITY           SKY/WX    TMP DP  RH WIND       PRES   REMARKS
EDENTON        CLEAR     70  66  85 S8        30.26F
ELIZABETH CITY PTCLDY    71  66  84 S7        30.26S
KITTY HAWK     CLEAR     72  64  78 SW6       30.26S
MANTEO         CLEAR     72  65  79 SW14      30.27F

$$

NCZ045>047-081-094-103-104-270700-
CENTRAL COAST

CITY           SKY/WX    TMP DP  RH WIND       PRES   REMARKS
FRISCO         PTCLDY    72  62  71 S13G20    30.28F
SWANQUARTER      N/A     73 N/A N/A S13G20    30.24S

$$

NCZ095-097-098-100-101-270700-
SOUTHERN COAST

CITY           SKY/WX    TMP DP  RH WIND       PRES   REMARKS
BEAUFORT       CLEAR     74  67  78 S12       30.27S
CEDAR ISLAND     N/A     72 N/A N/A S8        30.30S
JACKSONVILLE   PTCLDY    72  67  84 S3        30.25F
PINEY ISLAND   CLEAR    N/A N/A N/A S5        30.27S
WILMINGTON     CLOUDY    74  70  87 S7        30.25F


$$

NCZ011>013-027>030-043-044-078>080-089-090>093-098-270700-
COASTAL PLAIN

CITY           SKY/WX    TMP DP  RH WIND       PRES   REMARKS
AHOSKIE        CLOUDY    70  67  88 S5        30.25S
CLINTON        MOCLDY    72  71  96 S3        30.25F
ELIZABETHTOWN  CLOUDY    72  69  91 SE3       30.25F
GOLDSBORO      MOCLDY    72  70  92 CALM      30.23F
GREENVILLE     CLOUDY    72  70  94 SW7       30.26F
HAVELOCK       CLEAR     72  65  78 S5        30.27F
KENANSVILLE    MOCLDY    70  68  93 CALM      30.27S
KINSTON        CLOUDY    73  69  87 S5        30.26F
NEW BERN       PTCLDY    70  65  84 S3        30.27F
RICHLANDS      CLOUDY    70  64  83 CALM      30.26F
ROCKY MOUNT    MOCLDY    73  69  87 S6        30.24F
WASHINGTON     PTCLDY    70  66  88 CALM      30.27S
WHITEVILLE     DRIZZLE   72  69  89 S7        30.25F

$$

AMZ130-135-150-152-154-156-158-170-250-252-270-ANZ085-086-088-633-658-670-270700-
MARINE OBSERVATIONS

STATION/POSITION TIME  TEMP    WIND        PRES    WAVE   SWELL
                       AIR SEA DIR/SP/G            HT/PER HT/PER
                 (UTC) (F)     (DEG/KT/KT) (MB)    (FT/S) (FT/S)
CHESAPEAKE LIGHT 0500   67     190/ 20/ 21 1024.5
64 E VA BEACH    0550   66 63  170/ 10/ 12 1024.4    3/ 5   2/ 5
DUCK             0500   72 57  210/ 13/ 18 1024.0
2 E DUCK         0511      61                N/A     2/ 5
OREGON INLET     0500   74 76  180/ 16/ 19 1025.1
13E OREGON INLT  0600      67                N/A     3/ 5
HATTERAS CG      0500   74 76  180/  8/ 16 1025.0
DIAMOND BUOY     0550   75 77  190/ 16/ 19 1025.2    3/ 6   2/13
CAPE LOOKOUT     0600   74     170/ 12/ 14 1024.7
BEAUFORT LAB     0500   75 75  180/ 14/ 16 1024.1
27 SE WRIGHTSVLE 0500   72 76  200/ 14/ 16   N/A
5 SE WRIGHTSVLE  0508   76 76  190/ 14/ 17 1024.6
225 S CAPE HAT   0550   72 74  140/  8/ 12 1025.8    4/ 6   3/ 6
41 SE CHARLESTON 0550   78 76  170/  8/ 10 1023.5    3/ 7   3/ 7

$$


USA.gov is the U.S. government's official web portal to all federal, state and local government web resources and services.